Location: Dumpton Point
(51.3500°N, 1.4433°E)
Time: 22:06:51
(UTC+00:00)

Vanguard 1 - Pass Details

Date: 29 September 2022
Orbit: 650 x 3831 km, 34.2° (Epoch: 03 December)

Event Time Altitude Azimuth Distance (km) Brightness Sun altitude
Rises 17:04:24 0° 249° (WSW) 5,622 16.1 4.2°
Reaches altitude 10° 17:09:41 10° 236° (WSW) 4,000 14.6 3.4°
Maximum altitude 17:16:26 22° 192° (SSW) 2,429 12.4 2.3°
Drops below altitude 10° 17:21:09 10° 144° (SE) 2,670 12.0 1.6°
Sets 17:23:51 0° 127° (SE) 3,352 12.4 1.2°
